Regional Weather Roundup
Issued by NWS

Home | Current Version | Previous Version | Graphics & Text | Print | Product List | Glossary On
Versions: 1 2 3 4 5 6 7 8 9 10 11 12 13 14 15 16 17 18 19 20 21 22 23 24 25 26 27 28 29 30 31 32 33 34 35 36 37 38 39 40 41 42 43 44 45 46 47 48 49 50
000
ASUS43 KLSX 270059
RWRMO

WEATHER SUMMARY FOR MISSOURI
NATIONAL WEATHER SERVICE SPRINGFIELD MO
800 PM CDT WED APR 26 2017

NOTE: "FAIR" INDICATES FEW OR NO CLOUDS BELOW 12,000 FEET WITH NO
       SIGNIFICANT WEATHER AND/OR OBSTRUCTIONS TO VISIBILITY.
       CURRENT SKY AND/OR WEATHER CONDITIONS ARE NOT AVAILABLE FOR
       CHILLICOTHE AND FARMINGTON.

MOZ001>031-035>038-043-044-053-054-270200-
...NORTHERN AND WESTERN MISSOURI...

CITY           SKY/WX    TMP DP  RH WIND       PRES   REMARKS
KANSAS CTY INT CLOUDY    46  36  68 NW10G22   29.61R
KANSAS C DTWN  CLOUDY    48  37  65 NW12G20   29.61R
LEE`S SUMMIT   CLOUDY    46  41  82 NW10      29.60R
ST JOSEPH      CLOUDY    46  37  71 NW13      29.62S
CHILLICOTHE      N/A     47  41  80 NW6       29.58R
KIRKSVILLE     LGT RAIN  47  46  97 NW8       29.53R

$$
MOZ066>068-077>081-088>096-101>105-270200-
...SOUTHWEST MISSOURI...

CITY           SKY/WX    TMP DP  RH WIND       PRES   REMARKS
SPRINGFIELD    CLOUDY    45  43  93 NW13G21   29.57S
JOPLIN         LGT RAIN  46  45  96 NW9       29.65R
BRANSON        LGT RAIN  45  45 100 NW12G18   29.59R

$$
MOZ032>034-039>042-045>050-055>058-069>072-270200-
...CENTRAL MISSOURI...

CITY           SKY/WX    TMP DP  RH WIND       PRES   REMARKS
COLUMBIA       LGT RAIN  47  46  97 NW12      29.52F
JEFFERSON CITY LGT RAIN  49  46  90 NW10      29.52R FOG
ROLLA          RAIN      47  47 100 W14       29.49R FOG
SEDALIA        LGT RAIN  47  47 100 NW9       29.57S FOG
WHITEMAN AFB   LGT RAIN  45  45 100 NW9       29.57R FOG
OSAGE BEACH    LGT RAIN  46  45  96 W9        29.55S

$$
MOZ051-052-059>065-270200-
...EAST CENTRAL MISSOURI...

CITY           SKY/WX    TMP DP  RH WIND       PRES   REMARKS
ST LOUIS INTL  TSTM      62  59  90 SE18G29   29.40F
SPIRIT OF STL  TSTM      61  61 100 S6        29.44F FOG
ST CHARLES     LGT RAIN  61  61 100 E5        29.43S

$$
MOZ072>076-082>087-097>100-106>115-270200-
...SOUTH CENTRAL AND SOUTHEAST MISSOURI...

CITY           SKY/WX    TMP DP  RH WIND       PRES   REMARKS
CAPE GIRARDEAU LGT RAIN  59  57  93 SE10      29.50F
FARMINGTON     RAIN      58  58 100 E13       29.47F
POPLAR BLUFF   RAIN      59  59 100 SE6       29.50R FOG
WEST PLAINS    LGT RAIN  52  50  93 NW14G20   29.51R FOG

$$




USA.gov is the U.S. government's official web portal to all federal, state and local government web resources and services.